{"data":{"norad_id":66601,"intl_designator":"2025-270P","name":"STARLINK-35978","alt_names":[],"object_type":"PAYLOAD","status":"ACTIVE","operator":null,"country":"US","launch_date":"2025-11-22","launch_site_code":"AFETR","launch_vehicle":null,"mission":null,"orbit_class":"UNKNOWN","rcs_meters":null,"size_class":null,"mass_kg":null,"dimensions":null,"purposes":["comms"],"wikipedia_slug":null,"has_3d_model":false,"image_url":null,"decayed_at":null,"tle_current":{"epoch":"2026-05-24T23:26:10.469184Z","epoch_age_seconds":70920,"freshness":"FRESH","line1":"1 66601U 25270P   26144.97651006  .00019091  00000+0  70131-3 0  9990","line2":"2 66601  42.9976 345.2990 0001369 264.1318  95.9378 15.27587108 29213","mean_motion":15.27587108,"eccentricity":0.0001369,"inclination_deg":42.9976,"raan_deg":345.299,"arg_perigee_deg":264.1318,"mean_anomaly_deg":95.9378,"bstar":0.00070131,"rev_number":2921,"period_min":94.266310082004,"perigee_km":482.0885187503,"apogee_km":483.96710567589,"semimajor_km":6861.1648122131,"source":"CELESTRAK","updated_at":"2026-05-25T13:38:21.289974Z"}}}